Skip Page Navigation
NASA JPL Caltech
NASA Logo - Jet Propulsion Laboratory + View the NASA Portal
+ Near-Earth Object (NEO) Program
Search JPL
JPL Home Earth Solar System Stars & Galaxies Technology
JPL Solar System Dynamics
BODIES ORBITS EPHEMERIDES TOOLS PHYSICAL DATA DISCOVERY FAQ SITE MAP
JPL Small-Body Database Browser
Search: [ help ]  
86067 (1999 RM28)
Classification: Amor [NEO]          SPK-ID: 2086067
Ephemeris | Orbit Diagram | Orbital Elements | Physical Parameters | Discovery Circumstances | Close-Approach Data ]

[ show orbit diagram ]
Orbital Elements at Epoch 2457000.5 (2014-Dec-09.0) TDB
Reference: JPL 73 (heliocentric ecliptic J2000)
 Element Value Uncertainty (1-sigma)   Units 
e .3237483106987757 9.208e-08  
a 1.817165521015832 1.6114e-08 AU
q 1.228861253326896 1.5874e-07 AU
i 30.5430163824987 1.1786e-05 deg
node 136.1026371126268 8.1913e-06 deg
peri 301.8551387964475 2.1215e-05 deg
M 24.34226938707696 2.3728e-05 deg
tp 2456940.000926716230
(2014-Oct-09.50092672)
5.8304e-05 JED
period 894.7262079730256
2.45
1.1901e-05
3.258e-08
d
yr
n .4023577232811463 5.3521e-09 deg/d
Q 2.405469788704769 2.1331e-08 AU
  Orbit Determination Parameters
   # obs. used (total)      376  
   data-arc span      9268 days (25.37 yr)  
   first obs. used      1989-07-07  
   last obs. used      2014-11-21  
   planetary ephem.      DE431  
   SB-pert. ephem.      SB431-BIG16  
   condition code      0  
   fit RMS      .55831  
   data source      ORB  
   producer      Otto Matic  
   solution date      2014-Nov-21 05:20:52  

Additional Information
 Earth MOID = .363953 AU 
 T_jup = 3.827 
[ show covariance matrix ]

Ephemeris | Orbit Diagram | Orbital Elements | Physical Parameters | Discovery Circumstances | Close-Approach Data ]

Physical Parameter Table
Parameter Symbol Value Units Sigma Reference Notes
absolute magnitude H 16.3 mag n/a MPO214397  

86067 (1999 RM28)          Discovered 1999-Sep-03 by McNaught, R. H. at Siding Spring (413)
Reference: 20040830/Numbers.arcLast Updated: 2004-09-06

[ show close-approach data ]
Ephemeris | Orbit Diagram | Orbital Elements | Physical Parameters | Discovery Circumstances | Close-Approach Data ]
ABOUT SSD CREDITS/AWARDS PRIVACY/COPYRIGHT GLOSSARY LINKS
FirstGov 2014-Nov-23 08:39 UT
(server date/time)  
NASA Home Page
Site Manager:   Donald K. Yeomans
Webmaster  Alan B. Chamberlin